Regional Weather Roundup
Issued by NWS

Home | Current Version | Previous Version | Text Only | Print | Product List | Glossary On
Versions: 1 2 3 4 5 6 7 8 9 10 11 12 13 14 15 16 17 18 19 20 21 22 23 24 25 26 27 28 29 30 31 32 33 34 35 36 37 38 39 40 41 42 43 44 45 46 47 48 49 50
000
ASUS43 KFSD 200902
RWRSD

WEATHER ROUNDUP FOR SOUTH DAKOTA
NATIONAL WEATHER SERVICE SIOUX FALLS SD
400 AM CDT THU JUL 20 2017

NOTE: "FAIR" INDICATES FEW OR NO CLOUDS BELOW 12,000 FEET WITH NO
SIGNIFICANT WEATHER AND/OR OBSTRUCTIONS TO VISIBILITY.


SDZ001>005-009-010-012>017-201000-
NORTHWEST AND NORTH CENTRAL SOUTH DAKOTA

CITY           SKY/WX    TMP DP  RH WIND       PRES   REMARKS
BUFFALO          N/A     66  59  78 SE10      29.99S
FAITH            N/A     66  63  90 SE13      30.04F
MOBRIDGE       PTCLDY    65  64  97 N5        29.98S FOG
$$

SDZ012>016-024>037-041>051-057-063-072>074-201000-
SOUTHWEST AND SOUTH CENTRAL SOUTH DAKOTA

CITY           SKY/WX    TMP DP  RH WIND       PRES   REMARKS
RAPID CTY ARPT CLOUDY    70  62  76 E6        30.08F
PIERRE         CLOUDY    74  70  87 E7        30.00R
CUSTER         CLOUDY    63  53  70 CALM      30.22F
ELLSWORTH AFB  CLOUDY    73  63  71 CALM      30.08F
PHILIP         CLOUDY    72  69  90 NE6       30.03S
PINE RIDGE     LGT RAIN  68  68 100 E6        30.09F
SPEARFISH      FAIR      72  61  68 SE7       30.11F
WINNER         FAIR      75  67  76 E6        30.01R
$$

SDZ004>011-016>023-039-040-201000-
NORTHEAST SOUTH DAKOTA

CITY           SKY/WX    TMP DP  RH WIND       PRES   REMARKS
ABERDEEN       PTCLDY    66  66 100 N5        29.97R FOG
WATERTOWN      FOG       63  63 100 S6        29.99R VSB 1/2
BROOKINGS      MOCLDY    70  68  93 E7        29.99S
SISSETON         N/A     61  61 100 N3        29.94S
$$

SDZ017-020-022-023-036>040-048>070-201000-
SOUTHEAST SOUTH DAKOTA

CITY           SKY/WX    TMP DP  RH WIND       PRES   REMARKS
SIOUX FALLS    CLOUDY    72  69  90 NE7       29.96S
HURON          PTCLDY    70  69  97 W3        29.98R FOG
CHAMBERLAIN    CLOUDY    75  72  88 NE6       29.99R
MITCHELL       MOCLDY    74  72  93 NE7       29.96R
YANKTON        CLOUDY    76  70  82 CALM      29.95R
$$

ABBREVIATIONS USED IN REMARKS
   TC - TEMPERATURE IN CELSIUS
  WCI - WIND CHILL INDEX
   HX - HEAT INDEX
  VSB - VISIBILITY





USA.gov is the U.S. government's official web portal to all federal, state and local government web resources and services.